Home   Weather   Ghazni   Past weeks

Flag for Afghanistan Past Weather in Ghazni, Afghanistan — Yesterday and Last 2 Weeks

Now
66 °F

Clear.


Feels Like: 66 °F
Forecast: 51 / 66 °F
Wind: 7 mph from Southwest

Location: Peshawar Airport

Current Time: May 1, 2017 at 5:34:56 am

Latest Report: May 1, 2017 at 4:29 am


Visibility: 2 mi

Pressure: 29.83 "Hg (23.11 "Hg at 2184m altitude)

Humidity: 64%

Dew Point: 54 °F

Location of GhazniLocation

Past Weather in Ghazni — Graph

°F

Ghazni Temperature Yesterday

Maximum temperature yesterday: 93 °F (at 1:00 pm)
Minimum temperature yesterday: 66 °F (at 6:00 am)
Average temperature yesterday: 82 °F

High & Low Weather Summary for the Past Weeks

 TemperatureHumidityPressure
High104 °F (Apr 16, 3:30 pm)88% (Apr 23, 1:30 am)29.92 "Hg (Apr 23, 1:30 am)
Low63 °F (Apr 25, 4:30 am)15% (Apr 30, 2:30 pm)29.53 "Hg (Apr 19, 3:30 pm)
Average83 °F44%29.74 "Hg
* Reported Apr 16 3:30 am — May 1 4:29 am, Ghazni, Weather by CustomWeather, © 2017

Note: Actual official high and low records may vary slightly from our data, if they occured in-between our weather recording intervals... More about our weather records

Advertising

Ghazni Weather History for the Previous 24 Hours

Scroll right to see more
 ConditionsComfort  
Time TempWeatherWind HumidityBarometerVisibility
4:29 am
Mon, May 1
66 °FClear.7 mph64%29.83 "Hg2 mi
3:30 am70 °FClear.No wind57%29.83 "Hg2 mi
2:30 am72 °FClear.7 mph44%29.83 "Hg2 mi
2:00 am73 °FHaze.7 mph41%29.83 "Hg2 mi
1:30 am73 °FHaze.7 mph41%29.83 "Hg2 mi
1:00 am73 °FHaze.7 mph41%29.83 "Hg2 mi
12:30 am73 °FHaze.7 mph41%29.83 "Hg2 mi
12:00 am75 °FHaze.7 mph39%29.83 "Hg2 mi
11:30 pm
Sun, Apr 30
75 °FHaze.7 mph39%29.83 "Hg2 mi
11:00 pm79 °FHaze.5 mph34%29.80 "Hg2 mi
10:30 pm79 °FHaze.5 mph34%29.80 "Hg2 mi
10:00 pm81 °FHaze.7 mph32%29.80 "Hg2 mi
9:30 pm81 °FHaze.7 mph32%29.80 "Hg2 mi
9:00 pm82 °FHaze.7 mph28%29.77 "Hg2 mi
8:30 pm82 °FHaze.7 mph28%29.77 "Hg2 mi
8:06 pm86 °FHaze.9 mph25%29.77 "Hg2 mi
7:30 pm86 °FHaze.9 mph25%29.77 "Hg2 mi
7:00 pm90 °FHaze.9 mph20%29.77 "Hg2 mi
6:30 pm90 °FHaze.9 mph20%29.77 "Hg2 mi
6:00 pm91 °FHaze.12 mph17%29.74 "Hg3 mi
5:30 pm91 °FHaze.12 mph17%29.74 "Hg3 mi
5:00 pm93 °FHaze.9 mph16%29.74 "Hg3 mi
4:30 pm93 °FHaze.9 mph16%29.74 "Hg3 mi
4:00 pm93 °FHaze.12 mph16%29.77 "Hg5 mi
3:30 pm93 °FHaze.12 mph16%29.77 "Hg5 mi
3:00 pm93 °FHaze.14 mph15%29.77 "Hg5 mi
2:30 pm93 °FHaze.14 mph15%29.77 "Hg5 mi
2:00 pm93 °FHaze.14 mph16%29.77 "Hg5 mi
1:30 pm93 °FHaze.14 mph16%29.77 "Hg5 mi
1:00 pm93 °FHaze.14 mph19%29.80 "Hg5 mi
12:00 pm91 °FHaze.12 mph21%29.77 "Hg5 mi
11:30 am91 °FHaze.12 mph21%29.77 "Hg5 mi
11:00 am88 °FSunny.7 mph29%29.83 "Hg3 mi
10:30 am88 °FSunny.7 mph29%29.83 "Hg3 mi
10:00 am86 °FSunny.7 mph31%29.83 "Hg3 mi
9:30 am86 °FSunny.7 mph31%29.83 "Hg3 mi
9:00 am82 °FSunny.No wind32%29.83 "Hg3 mi
8:30 am82 °FSunny.No wind32%29.83 "Hg3 mi
8:00 am77 °FSunny.No wind51%29.83 "Hg2 mi
7:30 am77 °FSunny.No wind51%29.83 "Hg2 mi
7:00 am68 °FSunny.5 mph56%29.80 "Hg2 mi
6:30 am68 °FSunny.5 mph56%29.80 "Hg2 mi
6:00 am66 °FSunny.7 mph60%29.80 "Hg2 mi
Weather by CustomWeather, © 2017

See weather overviewHow to use our weather pages